Weather History for KBKL - December, 2011

Change the Weather History Date:

Monday, December 12, 2011

  Actual Average Record
Temperature  
Mean Temperature 34 °F -  
Max Temperature 41 °F 40 °F 59 °F (1996)
Min Temperature 26 °F 30 °F 21 °F (2005)
Degree Days  
Heating Degree Days 32    
Moisture  
Dew Point 18 °F    
Average Humidity 53    
Maximum Humidity 63    
Minimum Humidity 41    
Precipitation  
Precipitation 0.00 in - - ()
Sea Level Pressure  
Sea Level Pressure 30.47 in    
Wind  
Wind Speed 4 mph (South)    
Max Wind Speed 7 mph    
Max Gust Speed -    
Visibility 10 miles    
Events      
Averages and records for this station are not official NWS values.
T = Trace of Precipitation, MM = Missing Value Source: NWS Daily Summary

Daily Weather History Graph

Daily Weather History Graph

Search for Another Location

Airport or City:

Trip Planner

Search our weather history database for the weather conditions in past years. The results will help you decide how hot, cold, wet, or windy it might be!

Date:

Astronomy

Dec. 12, 2011 Rise Set
Actual Time 7:43 AM EST 4:56 PM EST
Civil Twilight 7:12 AM EST 5:28 PM EST
Nautical Twilight 6:37 AM EST 6:03 PM EST
Astronomical Twilight 6:03 AM EST 6:36 PM EST
Moon 7:07 PM EST (12/12) 9:14 AM EST (12/12)
Length of Visible Light 10h 15m
Length of Day
9h 13m
Waning Gibbous, 96% of the Moon is Illuminated
Dec 12
Waning Gibbous
Dec 17
Last Quarter
Dec 24
New
Jan 1
First Quarter
Jan 9
Full

Hourly Weather History & Observations

Time (EST) Temp. Windchill Dew Point Humidity Pressure Visibility Wind Dir Wind Speed Gust Speed Precip Events Conditions
12:53 AM 30.0 °F 24.1 °F 14.0 °F 51% 30.48 in 10.0 mi SSE 5.8 mph - N/A   Clear
1:53 AM 28.9 °F 23.9 °F 14.0 °F 54% 30.47 in 10.0 mi SSE 4.6 mph - N/A   Clear
2:53 AM 28.0 °F 21.7 °F 14.0 °F 56% 30.49 in 10.0 mi South 5.8 mph - N/A   Clear
3:53 AM 28.0 °F 22.8 °F 14.0 °F 56% 30.48 in 10.0 mi South 4.6 mph - N/A   Clear
4:53 AM 28.0 °F 22.8 °F 14.0 °F 56% 30.48 in 10.0 mi SSE 4.6 mph - N/A   Clear
5:53 AM 27.0 °F 23.0 °F 14.0 °F 58% 30.48 in 10.0 mi SSE 3.5 mph - N/A   Clear
6:53 AM 26.1 °F 18.4 °F 15.1 °F 63% 30.49 in 10.0 mi SSE 6.9 mph - N/A   Clear
7:53 AM 26.1 °F 19.4 °F 15.1 °F 63% 30.49 in 10.0 mi SSE 5.8 mph - N/A   Clear
8:53 AM 28.4 °F 22.2 °F 15.8 °F 59% 30.48 in 9.0 mi South 5.8 mph - N/A   Clear
9:53 AM 33.1 °F 30.0 °F 17.1 °F 52% 30.51 in 6.0 mi South 3.5 mph - N/A   Haze
10:53 AM 37.0 °F 33.3 °F 15.1 °F 41% 30.51 in 10.0 mi SW 4.6 mph - N/A   Clear
11:53 AM 39.0 °F 35.7 °F 17.1 °F 41% 30.49 in 10.0 mi West 4.6 mph - N/A   Clear
12:53 PM 39.9 °F 36.7 °F 18.0 °F 41% 30.47 in 10.0 mi WNW 4.6 mph - N/A   Clear
1:53 PM 41.0 °F 39.0 °F 21.0 °F 45% 30.46 in 10.0 mi NW 3.5 mph - N/A   Clear
2:53 PM 41.0 °F 39.0 °F 21.9 °F 47% 30.45 in 10.0 mi WNW 3.5 mph - N/A   Clear
3:53 PM 39.9 °F - 23.0 °F 51% 30.45 in 10.0 mi Calm Calm - N/A   Scattered Clouds
4:53 PM 37.9 °F - 23.0 °F 55% 30.44 in 10.0 mi Calm Calm - N/A   Scattered Clouds
5:53 PM 37.0 °F - 25.0 °F 62% 30.44 in 10.0 mi Calm Calm - N/A   Clear
6:53 PM 35.1 °F - 23.0 °F 61% 30.45 in 10.0 mi Calm Calm - N/A   Clear
7:53 PM 37.0 °F 34.5 °F 19.0 °F 48% 30.45 in 10.0 mi SSE 3.5 mph - N/A   Clear
8:53 PM 37.0 °F - 19.0 °F 48% 30.45 in 10.0 mi Calm Calm - N/A   Clear
9:53 PM 35.1 °F 32.2 °F 19.0 °F 52% 30.46 in 10.0 mi SSE 3.5 mph - N/A   Clear
10:53 PM 33.1 °F 27.7 °F 19.9 °F 59% 30.45 in 10.0 mi SSE 5.8 mph - N/A   Clear
11:53 PM 33.1 °F 27.7 °F 19.9 °F 59% 30.46 in 10.0 mi SSE 5.8 mph - N/A   Clear